ARSAT-1

operational
NORAD ID: 40272 Int'l Des: 2014-062 Owner: ARSAT Country: AR
HEOCIRCULARGSOGEO

Über ARSAT-1

Beschreibung wird geladen...

Live-Position

3D-Globus wird geladen...

Nächste Überflüge

Höhenverlauf

Altitude vs Time

uPlot chart will show altitude changes over time

Zweizeiliger Elementsatz

1 40272U 14062B 26071.18238984 -.00000259 00000-0 00000+0 0 9993
2 40272 0.0056 200.6988 0001625 154.6672 168.3050 1.00272862 41653
Epoch: 12. März 2026 • Age: 18 hours

Aktueller Status

Höhe 35779.0 km
Geschwindigkeit 3.08 km/s
Subsatellitenpunkt -0.00°S, 71.8°W
Startdatum 16. Okt. 2014
Alter 11.4 years
Typ other

Technische Details

Klassifizierung Payload
Masse 2983.00 kg
Trockenmasse 2000.00 kg
Gesamtmasse 2983.00 kg
Länge 3.10 m
Durchmesser 2.20 m
Spannweite 16.30 m
Form Box + 2 panels
Hersteller INVAP
Bus-Typ ARSAT-Bus
Phasenstatus In Orbit
Besitzer/Staat ARSAT/AR

Große Konstellationen

Loading constellations...